EW9135 Weather Reports


time (UTC)temp
F
wind
direction
speed
knots
gust
knots
rain 1hr
in
rain 24hr
in
rain mn
in
humidity
%
barometer
mb
20260903180346 76 112 0.0 0.0 0.00 0.00 0.00 21 1021.4
20260903175841 76 154 0.0 0.0 0.00 0.00 0.00 21 1021.1
20260903175334 76 172 0.0 0.0 0.00 0.00 0.00 21 1021.1
20260903174828 76 234 0.0 0.0 0.00 0.00 0.00 21 1021.1
20260903174819 76 200 0.0 0.0 0.00 0.00 0.00 21 1021.4
20260903174425 76 122 0.0 0.0 0.00 0.00 0.00 22 1021.4
20260903173311 76 170 0.0 0.0 0.00 0.00 0.00 21 1021.8
20260903172807 76 261 0.0 0.0 0.00 0.00 0.00 19 1021.1
20260903172259 75 272 0.0 0.0 0.00 0.00 0.00 17 1021.8
20260903171754 75 214 0.0 0.0 0.00 0.00 0.00 19 1021.4
20260903171749 75 251 0.0 0.0 0.00 0.00 0.00 21 1021.4
20260903170742 75 137 0.0 0.0 0.00 0.00 0.00 19 1021.8
20260903170236 75 233 0.0 0.0 0.00 0.00 0.00 18 1021.8
20260903165732 74 185 0.0 0.0 0.00 0.00 0.00 22 1021.8
20260903165224 74 223 0.0 0.0 0.00 0.00 0.00 23 1021.8
20260903164721 74 225 0.0 0.0 0.00 0.00 0.00 21 1021.8
20260903164716 73 143 0.0 0.0 0.00 0.00 0.00 19 1021.8
20260903163707 73 195 0.0 0.0 0.00 0.00 0.00 22 1021.8
20260903163202 72 205 0.0 0.0 0.00 0.00 0.00 22 1021.8
20260903162656 72 230 0.0 0.0 0.00 0.00 0.00 23 1021.8
20260903162149 72 224 0.0 0.0 0.00 0.00 0.00 21 1021.8
20260903161645 72 214 0.0 0.0 0.00 0.00 0.00 21 1021.8
20260903161139 72 223 0.0 0.0 0.00 0.00 0.00 22 1021.8
20260903160633 72 182 0.0 0.0 0.00 0.00 0.00 22 1021.8
20260903160127 72 232 0.0 0.0 0.00 0.00 0.00 20 1021.8
20260903155622 71 247 0.0 0.0 0.00 0.00 0.00 20 1021.8
20260903155115 70 255 0.0 0.0 0.00 0.00 0.00 21 1021.8
20260903154609 69 278 0.0 0.0 0.00 0.00 0.00 21 1022.1
20260903154104 68 158 0.0 0.0 0.00 0.00 0.00 21 1021.8
20260903153558 67 209 0.0 0.0 0.00 0.00 0.00 23 1021.8
20260903153052 67 185 0.0 0.0 0.00 0.00 0.00 24 1022.1
20260903152547 66 182 0.0 0.0 0.00 0.00 0.00 30 1022.1
20260903152040 66 186 0.0 0.0 0.00 0.00 0.00 31 1022.1
20260903151535 66 191 0.0 0.0 0.00 0.00 0.00 32 1022.1
20260903151030 65 190 0.0 0.0 0.00 0.00 0.00 32 1022.1
20260903150524 65 194 0.0 0.0 0.00 0.00 0.00 31 1022.1
20260903150519 64 207 0.0 0.0 0.00 0.00 0.00 31 1022.1
20260903145517 64 217 0.0 0.0 0.00 0.00 0.00 31 1022.1
20260903145009 63 185 0.0 0.0 0.00 0.00 0.00 33 1022.1
20260903144503 63 209 0.0 0.0 0.00 0.00 0.00 35 1022.1
20260903143959 62 194 0.0 0.0 0.00 0.00 0.00 36 1021.8
20260903143953 62 213 0.0 0.0 0.00 0.00 0.00 36 1022.1
20260903142945 62 196 0.0 0.0 0.00 0.00 0.00 37 1022.1
20260903142441 62 252 0.0 0.0 0.00 0.00 0.00 38 1022.1
20260903141935 62 241 0.0 0.0 0.00 0.00 0.00 38 1022.1
20260903141930 62 197 0.0 0.0 0.00 0.00 0.00 38 1022.1
20260903140924 62 231 0.0 0.0 0.00 0.00 0.00 38 1022.1
20260903140417 62 193 0.0 0.0 0.00 0.00 0.00 39 1022.1
20260903135911 62 256 0.0 0.0 0.00 0.00 0.00 38 1022.1
20260903135407 62 218 0.0 0.0 0.00 0.00 0.00 37 1022.1
20260903134859 62 244 0.0 0.0 0.00 0.00 0.00 37 1021.8
20260903134355 62 225 0.0 0.0 0.00 0.00 0.00 37 1021.8
20260903134350 62 205 0.0 0.0 0.00 0.00 0.00 38 1021.8
20260903133343 62 271 0.0 0.0 0.00 0.00 0.00 38 1021.8
20260903132836 62 224 0.0 0.0 0.00 0.00 0.00 38 1021.8
20260903132331 62 265 0.0 0.0 0.00 0.00 0.00 37 1021.8
20260903131825 62 255 0.0 0.0 0.00 0.00 0.00 37 1021.8
20260903131319 62 207 0.0 0.0 0.00 0.00 0.00 37 1021.8
20260903130814 62 260 0.0 0.0 0.00 0.00 0.00 38 1021.8
20260903130308 62 211 0.0 0.0 0.00 0.00 0.00 38 1021.8
20260903130303 61 270 0.0 0.0 0.00 0.00 0.00 38 1022.1
20260903125257 61 193 0.0 0.0 0.00 0.00 0.00 38 1021.8
20260903124750 61 243 0.0 0.0 0.00 0.00 0.00 38 1021.8
20260903124745 61 216 0.0 0.0 0.00 0.00 0.00 39 1021.8
20260903124249 61 216 0.0 0.0 0.00 0.00 0.00 39 1021.8
20260903123740 61 217 0.0 0.0 0.00 0.00 0.00 39 1021.8
20260903123232 61 284 0.0 0.0 0.00 0.00 0.00 39 1022.4
20260903122726 61 259 0.0 0.0 0.00 0.00 0.00 38 1021.8
20260903122223 61 220 0.0 0.0 0.00 0.00 0.00 38 1022.1
20260903121715 61 273 0.0 0.0 0.00 0.00 0.00 38 1021.8
20260903121210 61 240 0.0 0.0 0.00 0.00 0.00 38 1022.1
20260903120706 61 233 0.0 0.0 0.00 0.00 0.00 37 1021.8
20260903120158 61 245 0.0 0.0 0.00 0.00 0.00 37 1022.1
20260903115652 60 200 0.0 0.0 0.00 0.00 0.00 37 1022.1
20260903115147 60 261 0.0 0.0 0.00 0.00 0.00 38 1021.8
20260903114641 60 253 0.0 0.0 0.00 0.00 0.00 38 1022.1
20260903114135 59 231 0.0 0.0 0.00 0.00 0.00 38 1022.1
20260903113630 59 209 0.0 0.0 0.00 0.00 0.00 39 1022.1
20260903113123 59 215 0.0 0.0 0.00 0.00 0.00 39 1022.4
20260903113115 59 226 0.0 0.0 0.00 0.00 0.00 39 1022.1
20260903112720 59 234 0.0 0.0 0.00 0.00 0.00 39 1022.1
20260903111605 59 226 0.0 0.0 0.00 0.00 0.00 40 1022.4
20260903111100 59 223 0.0 0.0 0.00 0.00 0.00 39 1022.4
20260903110555 59 226 0.0 0.0 0.00 0.00 0.00 39 1022.8
20260903110048 59 270 0.0 0.0 0.00 0.00 0.00 40 1022.4
20260903105543 58 248 0.0 0.0 0.00 0.00 0.00 40 1022.4
20260903105039 58 239 0.0 0.0 0.00 0.00 0.00 40 1022.4
20260903105032 58 234 0.0 0.0 0.00 0.00 0.00 40 1022.4
20260903104026 58 233 0.0 0.0 0.00 0.00 0.00 40 1022.4
20260903103520 58 236 0.0 0.0 0.00 0.00 0.00 40 1022.8
20260903103014 58 244 0.0 0.0 0.00 0.00 0.00 40 1022.4
20260903102507 58 222 0.0 0.0 0.00 0.00 0.00 40 1022.4
20260903102004 58 224 0.0 0.0 0.00 0.00 0.00 39 1022.8
20260903101457 58 227 0.0 0.0 0.00 0.00 0.00 39 1022.8
20260903101045 59 224 0.0 0.0 0.00 0.00 0.00 38 1022.4
20260903100950 59 224 0.0 0.0 0.00 0.00 0.00 39 1022.8
20260903100936 59 224 0.0 0.0 0.00 0.00 0.00 38 1022.4
20260903100039 59 224 0.0 0.0 0.00 0.00 0.00 38 1022.8
20260903094928 60 229 0.0 0.0 0.00 0.00 0.00 37 1022.8
20260903094422 60 229 0.0 0.0 0.00 0.00 0.00 37 1022.8
20260903093916 60 229 0.0 0.0 0.00 0.00 0.00 37 1022.8
20260903093412 60 227 0.0 0.0 0.00 0.00 0.00 37 1022.8
20260903092905 60 234 0.0 0.0 0.00 0.00 0.00 36 1022.8
20260903092359 61 234 0.0 0.0 0.00 0.00 0.00 36 1022.8
20260903091854 61 270 0.0 0.0 0.00 0.00 0.00 36 1022.8
20260903091348 61 206 0.0 0.0 0.00 0.00 0.00 35 1022.8
20260903090841 60 259 0.0 0.0 0.00 0.00 0.00 35 1023.1
20260903090832 60 257 0.0 0.0 0.00 0.00 0.00 36 1023.1
20260903090436 60 255 0.0 0.0 0.00 0.00 0.00 35 1022.8
20260903085324 60 245 0.0 0.0 0.00 0.00 0.00 36 1023.1
20260903084820 60 204 0.0 0.0 0.00 0.00 0.00 35 1023.1
20260903084313 60 244 0.0 0.0 0.00 0.00 0.00 37 1023.1
20260903083807 60 238 0.0 0.0 0.00 0.00 0.00 37 1023.5
20260903083302 60 213 0.0 0.0 0.00 0.00 0.00 37 1023.1
20260903083256 60 224 0.0 0.0 0.00 0.00 0.00 37 1023.1
20260903082249 61 225 0.0 0.0 0.00 0.00 0.00 38 1023.5
20260903081745 61 270 0.0 0.0 0.00 0.00 0.00 38 1023.1
20260903081237 61 248 0.0 0.0 0.00 0.00 0.00 36 1023.1
20260903080732 61 235 0.0 0.0 0.00 0.00 0.00 37 1023.1
20260903080227 61 217 0.0 0.0 0.00 0.00 0.00 38 1023.1
20260903075648 61 229 0.0 0.0 0.00 0.00 0.00 37 1023.1
20260903075143 61 206 0.0 0.0 0.00 0.00 0.00 37 1022.8
20260903074638 61 252 0.0 0.0 0.00 0.00 0.00 37 1023.1
20260903074132 62 220 0.0 0.0 0.00 0.00 0.00 36 1023.1
20260903073625 62 134 0.0 0.0 0.00 0.00 0.00 36 1023.1
20260903073121 62 237 0.0 0.0 0.00 0.00 0.00 36 1023.1
20260903072614 62 218 0.0 0.0 0.00 0.00 0.00 36 1023.1
20260903072108 62 215 0.0 0.0 0.00 0.00 0.00 36 1023.1
20260903071603 62 229 0.0 0.0 0.00 0.00 0.00 36 1023.1
20260903071056 62 222 0.0 0.0 0.00 0.00 0.00 36 1023.1
20260903070551 62 215 0.0 0.0 0.00 0.00 0.00 35 1023.5
20260903070048 62 273 0.0 0.0 0.00 0.00 0.00 35 1023.1
20260903065539 62 284 0.0 0.0 0.00 0.00 0.00 35 1023.1
20260903065033 63 255 0.0 0.0 0.00 0.00 0.00 35 1023.5
20260903064529 63 341 0.0 0.0 0.00 0.00 0.00 34 1023.5
20260903064021 63 306 0.0 0.0 0.00 0.00 0.00 35 1023.5
20260903063516 63 255 0.0 0.0 0.00 0.00 0.00 33 1023.1
20260903063011 63 271 0.0 0.0 0.00 0.00 0.00 33 1023.1
20260903062504 63 270 0.0 0.0 0.00 0.00 0.00 33 1023.1
20260903061958 64 175 0.0 0.0 0.00 0.00 0.00 33 1023.5
20260903061454 64 248 0.0 0.0 0.00 0.00 0.00 32 1023.1
20260903060947 64 241 0.0 0.0 0.00 0.00 0.00 32 1023.5
20260903060441 64 290 0.0 0.9 0.00 0.00 0.00 32 1023.1
20260903055937 64 130 0.0 0.9 0.00 0.00 0.00 32 1023.5
20260903055429 64 210 0.0 0.0 0.00 0.00 0.00 32 1023.1
20260903054924 64 328 0.0 0.0 0.00 0.00 0.00 32 1023.5
20260903054419 64 229 0.0 0.0 0.00 0.00 0.00 31 1023.5
20260903053912 64 203 0.0 0.0 0.00 0.00 0.00 31 1023.5
20260903053406 64 241 0.0 0.0 0.00 0.00 0.00 31 1023.5
20260903052902 64 2 0.0 0.0 0.00 0.00 0.00 31 1023.5
20260903052356 64 187 0.0 0.0 0.00 0.00 0.00 31 1023.5
20260903051850 65 195 0.0 0.0 0.00 0.00 0.00 30 1023.5
20260903051344 65 220 0.0 0.0 0.00 0.00 0.00 32 1023.5
20260903050837 65 259 0.0 0.0 0.00 0.00 0.00 32 1023.5
20260903050331 66 312 0.0 0.0 0.00 0.00 0.00 32 1023.5
20260903045827 66 296 0.0 0.0 0.00 0.00 0.00 32 1023.5
20260903045320 67 239 0.0 0.0 0.00 0.00 0.00 32 1023.5
20260903044814 67 323 0.0 0.0 0.00 0.00 0.00 32 1023.5
20260903044804 67 221 0.0 0.0 0.00 0.00 0.00 32 1023.5
20260903044410 67 304 0.0 0.0 0.00 0.00 0.00 32 1023.5
20260903043257 67 256 0.0 0.0 0.00 0.00 0.00 31 1023.1
20260903042753 67 199 0.0 0.0 0.00 0.00 0.00 31 1023.5
20260903042747 68 318 0.0 0.0 0.00 0.00 0.00 31 1023.1
20260903041739 68 252 0.0 0.0 0.00 0.00 0.00 31 1023.1
20260903041235 68 250 0.0 0.0 0.00 0.00 0.00 31 1023.1
20260903040728 68 38 0.0 0.0 0.00 0.00 0.00 31 1023.1
20260903040722 68 218 0.0 0.0 0.00 0.00 0.00 31 1023.1
20260903035717 68 200 0.0 0.0 0.00 0.00 0.00 30 1023.1
20260903035210 69 243 0.0 0.0 0.00 0.00 0.00 30 1023.1
20260903034705 69 219 0.0 0.0 0.00 0.00 0.00 30 1023.1
20260903034200 69 220 0.0 0.0 0.00 0.00 0.00 30 1023.1
20260903033653 69 222 0.0 0.0 0.00 0.00 0.00 30 1022.8
20260903033147 69 319 0.0 0.0 0.00 0.00 0.00 30 1022.4
20260903032643 69 221 0.0 0.0 0.00 0.00 0.00 29 1022.4
20260903032136 70 183 0.0 0.0 0.00 0.00 0.00 29 1022.4
20260903031630 70 14 0.0 0.0 0.00 0.00 0.00 28 1022.4
20260903031125 70 245 0.0 0.9 0.00 0.00 0.00 28 1022.4
20260903030619 70 309 0.0 0.9 0.00 0.00 0.00 27 1022.4
20260903030610 71 277 0.0 0.9 0.00 0.00 0.00 25 1022.4
20260903030215 70 234 0.0 0.0 0.00 0.00 0.00 25 1022.1
20260903025101 71 301 0.0 0.9 0.00 0.00 0.00 25 1022.4
20260903024555 71 241 0.0 0.9 0.00 0.00 0.00 24 1022.4
20260903024053 71 331 0.0 0.9 0.00 0.00 0.00 24 1022.4
20260903024045 72 293 0.0 0.9 0.00 0.00 0.00 23 1022.4
20260903023037 72 231 0.0 0.9 0.00 0.00 0.00 22 1022.4
20260903022533 72 348 0.0 0.9 0.00 0.00 0.00 21 1022.1
20260903022026 72 249 0.0 0.9 0.00 0.00 0.00 19 1022.1
20260903021520 73 345 0.0 0.9 0.00 0.00 0.00 19 1022.1
20260903021016 73 196 0.0 0.9 0.00 0.00 0.00 19 1022.1
20260903020508 73 290 0.0 0.9 0.00 0.00 0.00 19 1022.4
20260903020004 73 226 0.0 0.0 0.00 0.00 0.00 19 1022.1
20260903015458 74 311 0.0 0.0 0.00 0.00 0.00 20 1022.4
20260903014951 74 221 0.0 0.0 0.00 0.00 0.00 20 1022.1
20260903014943 75 260 0.0 0.9 0.00 0.00 0.00 22 1022.1
20260903014546 74 215 0.0 0.9 0.00 0.00 0.00 20 1022.4
20260903013434 75 294 0.0 0.9 0.00 0.00 0.00 22 1022.1
20260903012928 76 225 0.0 2.6 0.00 0.00 0.00 22 1021.8
20260903012423 76 289 0.0 2.6 0.00 0.00 0.00 22 1022.1
20260903011916 76 176 0.0 0.0 0.00 0.00 0.00 22 1022.1
20260903011411 77 215 0.0 1.7 0.00 0.00 0.00 21 1022.1
20260903010906 77 249 0.0 1.7 0.00 0.00 0.00 20 1022.1
20260903010400 77 280 0.0 0.9 0.00 0.00 0.00 19 1021.8
20260903010354 77 154 0.0 0.9 0.00 0.00 0.00 19 1022.1
20260903005348 77 243 0.0 0.0 0.00 0.00 0.00 18 1022.1
20260903004842 77 281 0.0 0.0 0.00 0.00 0.00 20 1021.8
20260903004338 77 213 0.0 0.0 0.00 0.00 0.00 20 1022.1
20260903003831 77 145 0.0 0.0 0.00 0.00 0.00 20 1022.1
20260903003325 77 222 0.0 1.7 0.00 0.00 0.00 20 1022.1
20260903003320 77 170 0.0 1.7 0.00 0.00 0.00 20 1022.1
20260903002315 77 142 0.0 0.9 0.00 0.00 0.00 20 1021.8
20260903002308 77 38 0.0 0.9 0.00 0.00 0.00 20 1022.4
20260903001301 77 174 0.0 0.0 0.00 0.00 0.00 20 1022.1
20260903000757 76 188 0.0 0.0 0.00 0.00 0.00 20 1022.1
20260903000249 76 96 0.0 0.0 0.00 0.00 0.00 21 1022.1
20260902235744 76 141 0.0 0.0 0.00 0.00 0.00 21 1022.4
20260902235239 76 174 0.0 0.0 0.00 0.00 0.00 20 1022.4
20260902234733 76 199 0.0 0.0 0.00 0.00 0.00 21 1022.4
20260902234226 76 159 0.0 0.0 0.00 0.00 0.00 21 1022.4
20260902234216 76 186 0.0 0.0 0.00 0.00 0.00 21 1022.4
20260902233820 76 149 0.0 0.0 0.00 0.00 0.00 21 1022.4
20260902233316 76 182 0.0 0.0 0.00 0.00 0.00 20 1022.8
20260902232204 76 187 0.0 0.0 0.00 0.00 0.00 21 1022.4
20260902231657 77 198 0.0 0.0 0.00 0.00 0.00 21 1022.4
20260902231152 77 231 0.0 0.0 0.00 0.00 0.00 21 1022.4
20260902230647 77 140 0.0 0.0 0.00 0.00 0.00 21 1022.4
20260902230140 77 140 0.0 0.9 0.00 0.00 0.00 21 1022.4
20260902225634 78 196 0.0 1.7 0.00 0.00 0.00 21 1022.4
20260902225129 78 306 0.0 1.7 0.00 0.00 0.00 20 1022.8
20260902224622 78 245 0.0 1.7 0.00 0.00 0.00 20 1022.4
20260902224116 78 169 0.0 1.7 0.00 0.00 0.00 20 1022.8
20260902223612 78 56 0.0 0.9 0.00 0.00 0.00 21 1022.4
20260902223105 79 123 0.0 0.9 0.00 0.00 0.00 20 1022.8
20260902222559 78 211 0.0 0.9 0.00 0.00 0.00 14 1022.8
20260902222055 78 324 0.0 0.9 0.00 0.00 0.00 19 1022.8
20260902221547 78 325 0.0 0.9 0.00 0.00 0.00 16 1022.8
20260902221042 78 229 0.0 0.9 0.00 0.00 0.00 18 1023.1
20260902220537 78 25 0.0 0.9 0.00 0.00 0.00 19 1023.1
20260902220530 78 167 0.0 1.7 0.00 0.00 0.00 17 1023.1
20260902215524 78 286 0.0 1.7 0.00 0.00 0.00 20 1023.5
20260902215019 78 63 0.0 1.7 0.00 0.00 0.00 20 1023.5
20260902214513 78 321 0.0 0.0 0.00 0.00 0.00 19 1023.5
20260902214006 78 322 0.0 0.0 0.00 0.00 0.00 18 1023.5
20260902213502 78 125 0.0 0.9 0.00 0.00 0.00 19 1023.5
20260902212955 78 343 0.0 1.7 0.00 0.00 0.00 21 1023.5
20260902212449 78 229 0.0 1.7 0.00 0.00 0.00 20 1023.5
20260902211947 77 23 0.0 0.9 0.00 0.00 0.00 20 1023.5
20260902211940 77 38 0.0 0.9 0.00 0.00 0.00 20 1023.8
20260902210932 76 301 0.0 0.0 0.00 0.00 0.00 20 1023.8
20260902210428 76 287 0.0 0.0 0.00 0.00 0.00 20 1023.8
20260902205920 75 84 0.0 0.9 0.00 0.00 0.00 21 1024.1
20260902205906 74 308 0.0 0.0 0.00 0.00 0.00 24 1023.8
20260902205513 75 117 0.0 0.0 0.00 0.00 0.00 23 1023.8
20260902205010 75 331 0.0 0.0 0.00 0.00 0.00 23 1023.8
20260902203857 74 252 0.0 0.9 0.00 0.00 0.00 25 1023.8
20260902203352 74 289 0.0 0.9 0.00 0.00 0.00 25 1023.8
20260902202845 75 58 0.0 1.7 0.00 0.00 0.00 25 1024.1
20260902202340 75 267 0.0 1.7 0.00 0.00 0.00 23 1024.1
20260902202329 76 83 0.0 0.0 0.00 0.00 0.00 25 1024.1
20260902201935 75 192 0.0 1.7 0.00 0.00 0.00 27 1024.1
20260902200827 77 307 0.0 0.9 0.00 0.00 0.00 22 1024.1
20260902200823 76 333 0.0 0.9 0.00 0.00 0.00 23 1024.1
20260902195810 77 227 0.0 1.7 0.00 0.00 0.00 23 1024.1
20260902195306 78 279 0.0 1.7 0.00 0.00 0.00 24 1024.1
20260902194800 78 14 0.0 0.9 0.00 0.00 0.00 22 1024.1
20260902194253 78 355 0.0 0.0 0.00 0.00 0.00 17 1024.1
20260902193748 77 328 0.0 0.0 0.00 0.00 0.00 18 1024.5
20260902193743 77 27 0.0 0.0 0.00 0.00 0.00 14 1024.1
20260902192737 77 154 0.0 0.0 0.00 0.00 0.00 16 1024.1
20260902192730 76 344 0.0 0.0 0.00 0.00 0.00 18 1024.1
20260902191725 76 130 0.0 0.0 0.00 0.00 0.00 16 1024.5
20260902191218 76 136 0.0 0.0 0.00 0.00 0.00 18 1024.5
20260902190712 75 134 0.0 0.0 0.00 0.00 0.00 21 1024.5
20260902190208 75 332 0.0 0.0 0.00 0.00 0.00 18 1024.5
20260902185700 74 220 0.0 0.0 0.00 0.00 0.00 20 1024.5
20260902185155 74 265 0.0 0.0 0.00 0.00 0.00 20 1024.8
20260902184651 74 274 0.0 0.0 0.00 0.00 0.00 22 1024.5
20260902184143 74 191 0.0 0.9 0.00 0.00 0.00 22 1024.5
20260902183638 75 281 0.0 0.9 0.00 0.00 0.00 20 1024.1
20260902183133 75 220 0.0 0.0 0.00 0.00 0.00 22 1024.5
20260902182626 76 49 0.0 0.0 0.00 0.00 0.00 22 1024.5
20260902182120 76 194 0.0 0.9 0.00 0.00 0.00 22 1024.8
20260902181615 76 234 0.0 0.9 0.00 0.00 0.00 22 1024.5
20260902181108 76 234 0.0 0.0 0.00 0.00 0.00 16 1024.5